GW1145 Weather Reports


time (UTC)temp
C
wind
direction
speed
KPH
gust
KPH
rain 1hr
cm
rain 24hr
cm
rain mn
cm
humidity
%
barometer
mb
20260504174009 6 211 0.0 0.0 0.00 0.08 0.08 86 1004.3
20260504173904 6 278 0.0 0.0 0.00 0.08 0.08 86 1004.3
20260504173757 6 284 0.0 0.0 0.00 0.08 0.08 86 1004.3
20260504173654 6 263 0.0 0.0 0.00 0.08 0.08 86 1004.3
20260504173552 6 292 0.0 0.0 0.00 0.08 0.08 86 1004.4
20260504173444 6 275 0.0 0.0 0.00 0.08 0.08 86 1004.4
20260504173339 6 296 0.0 0.0 0.00 0.08 0.08 86 1004.4
20260504172758 6 274 0.0 0.0 0.00 0.08 0.08 86 1004.4
20260504172431 6 254 0.0 0.0 0.00 0.08 0.08 86 1004.4
20260504172327 6 220 0.0 0.0 0.00 0.08 0.08 86 1004.5
20260504172220 6 266 0.0 0.0 0.00 0.08 0.08 87 1004.4
20260504172116 6 275 0.0 0.0 0.00 0.08 0.08 87 1004.4
20260504172009 6 267 0.0 0.0 0.00 0.08 0.08 87 1004.3
20260504171904 6 236 0.0 0.0 0.00 0.08 0.08 87 1004.4
20260504171802 5 209 0.0 0.0 0.00 0.08 0.08 87 1004.3
20260504171217 5 208 0.0 0.0 0.00 0.08 0.08 87 1004.3
20260504171112 5 208 0.0 0.0 0.00 0.08 0.08 87 1004.3
20260504171005 5 208 0.0 0.0 0.00 0.08 0.08 87 1004.4
20260504170902 5 207 0.0 0.0 0.00 0.08 0.08 87 1004.3
20260504170756 5 207 0.0 0.0 0.00 0.08 0.08 88 1004.3
20260504170651 5 246 0.0 0.0 0.00 0.08 0.08 88 1004.4
20260504170548 5 333 0.0 0.0 0.00 0.08 0.08 87 1004.3
20260504170444 5 328 0.0 0.0 0.00 0.08 0.08 87 1004.4
20260504170122 5 319 0.0 0.0 0.00 0.08 0.08 87 1004.3
20260504160400 4 303 0.0 3.2 0.00 0.08 0.08 88 1004.5
20260504160255 4 303 0.0 3.2 0.00 0.08 0.08 88 1004.5
20260504160152 4 270 0.0 1.6 0.00 0.08 0.08 88 1004.6
20260504151128 4 332 0.0 0.0 0.10 0.05 0.05 86 1004.7
20260504151024 4 296 0.0 0.0 0.10 0.05 0.05 86 1004.7
20260504150918 4 296 0.0 0.0 0.10 0.05 0.05 86 1004.7
20260504150812 4 296 0.0 0.0 0.10 0.05 0.05 85 1004.8
20260504150708 4 296 0.0 0.0 0.10 0.05 0.05 85 1004.7
20260504150602 4 296 0.0 0.0 0.10 0.05 0.05 85 1004.6
20260504150240 4 295 0.0 0.0 0.10 0.03 0.05 84 1004.6
20260504141246 6 223 0.0 0.0 0.00 0.00 0.00 67 1004.3
20260504141144 6 317 0.0 0.0 0.00 0.00 0.00 67 1004.3
20260504141041 6 317 0.0 0.0 0.00 0.00 0.00 67 1004.3
20260504140938 6 295 0.0 0.0 0.00 0.00 0.00 67 1004.4
20260504140835 6 204 0.0 0.0 0.00 0.00 0.00 67 1004.3
20260504140733 6 201 0.0 0.0 0.00 0.00 0.00 67 1004.3
20260504140631 6 201 0.0 0.0 0.00 0.00 0.00 67 1004.3
20260504130747 6 211 0.0 0.0 0.00 0.00 0.00 59 1004.2
20260504130646 6 186 0.0 0.0 0.00 0.00 0.00 59 1004.2
20260504130538 6 186 0.0 0.0 0.00 0.00 0.00 59 1004.2
20260504130215 6 275 0.0 0.0 0.00 0.00 0.00 58 1004.3
20260504130109 6 190 0.0 0.0 0.00 0.00 0.00 58 1004.2
20260504120212 5 92 0.0 0.0 0.00 0.00 0.00 65 1004.7
20260504110640 1 107 0.0 0.0 0.00 0.00 0.00 80 1004.8
20260504110538 1 107 0.0 0.0 0.00 0.00 0.00 80 1004.9
20260504110437 1 107 0.0 0.0 0.00 0.00 0.00 80 1004.9
20260504110334 1 107 0.0 0.0 0.00 0.00 0.00 80 1004.9
20260504110232 1 107 0.0 0.0 0.00 0.00 0.00 81 1004.9
20260504110130 1 55 0.0 0.0 0.00 0.00 0.00 82 1004.9
20260504100520 -2 5 0.0 0.0 0.00 0.00 0.00 90 1004.8
20260504100415 -2 310 0.0 0.0 0.00 0.00 0.00 90 1004.8
20260504100308 -2 302 0.0 0.0 0.00 0.00 0.00 90 1004.9
20260504081950 -1 5 0.0 0.0 0.00 0.00 0.00 89 1005.2
20260504081844 -1 5 0.0 0.0 0.00 0.00 0.00 89 1005.2
20260504081518 -1 5 0.0 0.0 0.00 0.00 0.00 89 1005.2
20260504081412 -1 5 0.0 0.0 0.00 0.00 0.00 89 1005.2
20260504081050 -1 5 0.0 0.0 0.00 0.00 0.00 89 1005.2
20260504080943 -1 5 0.0 0.0 0.00 0.00 0.00 89 1005.2
20260504080133 -1 15 0.0 0.0 0.00 0.00 0.00 89 1005.2
20260504070324 -2 17 0.0 0.0 0.00 0.00 0.00 88 1005.6
20260504070218 -2 17 0.0 0.0 0.00 0.00 0.00 87 1005.6
20260504070112 -2 17 0.0 0.0 0.00 0.00 0.00 87 1005.7
20260504060207 -1 11 0.0 0.0 0.00 0.00 0.00 86 1005.6
20260504050726 -1 5 0.0 0.0 0.00 0.00 0.00 87 1006.0
20260504050619 -1 5 0.0 0.0 0.00 0.00 0.00 87 1006.0
20260504050514 -1 5 0.0 0.0 0.00 0.00 0.00 87 1006.0
20260504050411 -1 5 0.0 0.0 0.00 0.00 0.00 87 1006.0
20260504050308 -1 5 0.0 0.0 0.00 0.00 0.00 87 1006.0
20260504050203 -1 5 0.0 0.0 0.00 0.00 0.00 87 1006.1
20260504045840 -1 5 0.0 0.0 0.00 0.00 0.00 87 1006.0
20260504045734 -1 5 0.0 0.0 0.00 0.00 0.00 86 1006.0
20260504045628 -1 5 0.0 0.0 0.00 0.00 0.00 86 1006.0
20260504045521 -1 5 0.0 0.0 0.00 0.00 0.00 86 1006.0
20260504045419 -1 5 0.0 0.0 0.00 0.00 0.00 86 1006.1
20260504045316 -1 5 0.0 0.0 0.00 0.00 0.00 86 1006.0
20260504045213 -1 5 0.0 0.0 0.00 0.00 0.00 86 1006.0
20260504044849 -1 5 0.0 0.0 0.00 0.00 0.00 86 1006.1
20260504044744 -1 5 0.0 0.0 0.00 0.00 0.00 86 1006.1
20260504044640 -1 5 0.0 0.0 0.00 0.00 0.00 86 1006.1
20260504044314 -1 5 0.0 0.0 0.00 0.00 0.00 86 1006.1
20260504044208 -1 5 0.0 0.0 0.00 0.00 0.00 86 1006.1
20260504044104 -1 5 0.0 0.0 0.00 0.00 0.00 86 1006.2
20260504043959 -1 5 0.0 0.0 0.00 0.00 0.00 86 1006.2
20260504043853 -1 5 0.0 0.0 0.00 0.00 0.00 86 1006.2
20260504043750 -1 5 0.0 0.0 0.00 0.00 0.00 86 1006.3
20260504043646 -1 5 0.0 0.0 0.00 0.00 0.00 86 1006.2
20260504043539 -1 5 0.0 0.0 0.00 0.00 0.00 86 1006.2
20260504043436 -1 5 0.0 0.0 0.00 0.00 0.00 86 1006.2
20260504043331 -1 5 0.0 0.0 0.00 0.00 0.00 86 1006.2
20260504043227 -1 5 0.0 0.0 0.00 0.00 0.00 86 1006.2
20260504043124 -1 5 0.0 0.0 0.00 0.00 0.00 86 1006.2
20260504043020 -1 5 0.0 0.0 0.00 0.00 0.00 86 1006.2
20260504042916 -1 5 0.0 0.0 0.00 0.00 0.00 86 1006.3
20260504042811 -1 5 0.0 0.0 0.00 0.00 0.00 86 1006.2
20260504042706 -1 5 0.0 0.0 0.00 0.00 0.00 85 1006.2
20260504042601 -1 5 0.0 0.0 0.00 0.00 0.00 85 1006.2
20260504042456 -1 5 0.0 0.0 0.00 0.00 0.00 85 1006.2
20260504042348 -1 5 0.0 0.0 0.00 0.00 0.00 85 1006.3
20260504042244 -1 5 0.0 0.0 0.00 0.00 0.00 85 1006.3
20260504041924 -1 5 0.0 0.0 0.00 0.00 0.00 86 1006.3
20260504041558 -1 5 0.0 0.0 0.00 0.00 0.00 86 1006.3
20260504041237 -1 5 0.0 0.0 0.00 0.00 0.00 85 1006.3
20260504041131 -1 5 0.0 0.0 0.00 0.00 0.00 85 1006.3
20260504041024 -1 5 0.0 0.0 0.00 0.00 0.00 85 1006.3
20260504040919 -1 5 0.0 0.0 0.00 0.00 0.00 85 1006.3
20260504040816 -1 5 0.0 0.0 0.00 0.00 0.00 84 1006.3
20260504040711 -1 5 0.0 0.0 0.00 0.00 0.00 84 1006.3
20260504040607 -1 5 0.0 0.0 0.00 0.00 0.00 85 1006.3
20260504040505 -1 5 0.0 0.0 0.00 0.00 0.00 84 1006.3
20260504040400 -1 5 0.0 0.0 0.00 0.00 0.00 84 1006.4
20260504040036 -1 5 0.0 0.0 0.00 0.00 0.00 84 1006.4
20260504035934 -1 5 0.0 0.0 0.00 0.00 0.00 84 1006.3
20260504035828 -1 5 0.0 0.0 0.00 0.00 0.00 84 1006.3
20260504035725 -1 5 0.0 0.0 0.00 0.00 0.00 84 1006.3
20260504035402 -1 5 0.0 0.0 0.00 0.00 0.00 84 1006.4
20260504035256 -1 5 0.0 0.0 0.00 0.00 0.00 84 1006.4
20260504035150 -1 5 0.0 0.0 0.00 0.00 0.00 84 1006.4
20260504035044 -1 5 0.0 0.0 0.00 0.00 0.00 84 1006.4
20260504034942 -1 5 0.0 0.0 0.00 0.00 0.00 84 1006.4
20260504034837 -1 5 0.0 0.0 0.00 0.00 0.00 84 1006.3
20260504034731 -1 5 0.0 0.0 0.00 0.00 0.00 83 1006.3
20260504034628 -1 5 0.0 0.0 0.00 0.00 0.00 83 1006.3
20260504034301 -1 5 0.0 0.0 0.00 0.00 0.00 83 1006.4
20260504034154 -1 5 0.0 0.0 0.00 0.00 0.00 83 1006.4
20260504033612 -1 5 0.0 0.0 0.00 0.00 0.00 83 1006.3
20260504033508 -1 5 0.0 0.0 0.00 0.00 0.00 83 1006.3
20260504033401 -1 5 0.0 0.0 0.00 0.00 0.00 83 1006.3
20260504033258 -1 5 0.0 0.0 0.00 0.00 0.00 83 1006.3
20260504033156 -1 5 0.0 0.0 0.00 0.00 0.00 83 1006.3
20260504033054 -1 5 0.0 0.0 0.00 0.00 0.00 83 1006.4
20260504032948 -1 5 0.0 0.0 0.00 0.00 0.00 83 1006.4
20260504032845 -1 5 0.0 0.0 0.00 0.00 0.00 82 1006.3
20260504032738 -1 5 0.0 0.0 0.00 0.00 0.00 83 1006.3
20260504032631 -1 5 0.0 0.0 0.00 0.00 0.00 83 1006.3
20260504032529 -1 5 0.0 0.0 0.00 0.00 0.00 82 1006.2
20260504032424 -1 5 0.0 0.0 0.00 0.00 0.00 82 1006.3
20260504032317 -1 5 0.0 0.0 0.00 0.00 0.00 82 1006.3
20260504031954 -1 5 0.0 0.0 0.00 0.00 0.00 82 1006.3
20260504031411 0 5 0.0 0.0 0.00 0.00 0.00 81 1006.2
20260504031309 0 5 0.0 0.0 0.00 0.00 0.00 81 1006.2
20260504031205 0 5 0.0 0.0 0.00 0.00 0.00 81 1006.1
20260504031058 0 5 0.0 0.0 0.00 0.00 0.00 81 1006.2
20260504030953 0 5 0.0 0.0 0.00 0.00 0.00 81 1006.1
20260504030624 0 5 0.0 0.0 0.00 0.00 0.00 80 1006.1
20260504030518 0 5 0.0 0.0 0.00 0.00 0.00 80 1006.1
20260504030414 0 5 0.0 0.0 0.00 0.00 0.00 80 1006.1
20260504030309 0 5 0.0 0.0 0.00 0.00 0.00 80 1006.1
20260504030207 0 5 0.0 0.0 0.00 0.00 0.00 80 1006.1
20260504025955 0 5 0.0 0.0 0.00 0.00 0.00 80 1006.2
20260504025848 0 5 0.0 0.0 0.00 0.00 0.00 80 1006.2
20260504025746 0 5 0.0 0.0 0.00 0.00 0.00 80 1006.2
20260504025201 0 5 0.0 0.0 0.00 0.00 0.00 79 1006.1
20260504024836 0 5 0.0 0.0 0.00 0.00 0.00 79 1006.2
20260504024732 0 5 0.0 0.0 0.00 0.00 0.00 79 1006.1
20260504024627 0 5 0.0 0.0 0.00 0.00 0.00 78 1006.1
20260504024525 0 5 0.0 0.0 0.00 0.00 0.00 78 1006.2
20260504024423 0 5 0.0 0.0 0.00 0.00 0.00 78 1006.1
20260504024321 0 5 0.0 0.0 0.00 0.00 0.00 78 1006.2
20260504024216 0 5 0.0 0.0 0.00 0.00 0.00 78 1006.2
20260504024113 0 5 0.0 0.0 0.00 0.00 0.00 78 1006.2
20260504023750 0 5 0.0 0.0 0.00 0.00 0.00 78 1006.2
20260504023647 0 5 0.0 0.0 0.00 0.00 0.00 78 1006.2
20260504023544 0 5 0.0 0.0 0.00 0.00 0.00 77 1006.2
20260504023441 0 5 0.0 0.0 0.00 0.00 0.00 77 1006.2
20260504023337 0 5 0.0 0.0 0.00 0.00 0.00 77 1006.2
20260504023008 0 5 0.0 0.0 0.00 0.00 0.00 77 1006.1
20260504022903 0 5 0.0 0.0 0.00 0.00 0.00 76 1006.2
20260504022538 0 5 0.0 0.0 0.00 0.00 0.00 76 1006.2
20260504022433 0 5 0.0 0.0 0.00 0.00 0.00 76 1006.2
20260504022329 0 5 0.0 0.0 0.00 0.00 0.00 76 1006.2
20260504022224 0 5 0.0 0.0 0.00 0.00 0.00 76 1006.2
20260504022121 0 5 0.0 0.0 0.00 0.00 0.00 75 1006.2
20260504022016 0 5 0.0 0.0 0.00 0.00 0.00 75 1006.2
20260504021912 0 5 0.0 0.0 0.00 0.00 0.00 75 1006.2
20260504021806 0 5 0.0 0.0 0.00 0.00 0.00 75 1006.3
20260504021445 1 5 0.0 0.0 0.00 0.03 0.00 75 1006.2
20260504021120 1 5 0.0 0.0 0.00 0.05 0.00 75 1006.1
20260504020537 1 5 0.0 0.0 0.00 0.08 0.00 74 1006.1
20260504020434 1 5 0.0 0.0 0.00 0.08 0.00 73 1006.1
20260504020327 1 5 0.0 0.0 0.00 0.08 0.00 73 1006.1
20260504020222 1 5 0.0 0.0 0.00 0.08 0.00 73 1006.1
20260504015854 1 5 0.0 0.0 0.00 0.08 0.00 73 1006.1
20260504015751 1 5 0.0 0.0 0.00 0.08 0.00 73 1006.1
20260504015646 1 5 0.0 0.0 0.00 0.08 0.00 73 1006.1
20260504015542 1 5 0.0 0.0 0.00 0.08 0.00 72 1006.1
20260504015439 1 5 0.0 0.0 0.00 0.08 0.00 72 1006.0
20260504015336 1 5 0.0 0.0 0.00 0.08 0.00 72 1006.1
20260504015231 1 5 0.0 0.0 0.00 0.08 0.00 72 1006.0
20260504015126 1 5 0.0 0.0 0.00 0.08 0.00 72 1006.1
20260504015021 1 5 0.0 0.0 0.00 0.08 0.00 72 1006.0
20260504014916 1 5 0.0 0.0 0.00 0.08 0.00 72 1006.0
20260504014811 1 13 0.0 0.0 0.00 0.08 0.00 72 1006.1
20260504014442 2 13 0.0 0.0 0.00 0.08 0.00 72 1006.1
20260504014119 2 13 0.0 0.0 0.00 0.08 0.00 72 1006.1
20260504014016 2 13 0.0 0.0 0.00 0.08 0.00 71 1006.1
20260504013910 2 13 0.0 0.0 0.00 0.08 0.00 71 1006.0
20260504013548 2 13 0.0 0.0 0.00 0.08 0.00 71 1006.0
20260504013443 2 13 0.0 0.0 0.00 0.08 0.00 71 1006.0
20260504013339 2 13 0.0 0.0 0.00 0.08 0.00 70 1006.0
20260504013236 2 13 0.0 0.0 0.00 0.08 0.00 70 1005.9
20260504012910 2 13 0.0 0.0 0.00 0.08 0.00 69 1006.0
20260504012806 2 13 0.0 0.0 0.00 0.08 0.00 69 1006.0
20260504012702 2 13 0.0 0.0 0.00 0.08 0.00 69 1006.0
20260504012600 2 13 0.0 0.0 0.00 0.08 0.00 68 1006.0
20260504012453 2 13 0.0 0.0 0.00 0.08 0.00 68 1006.0
20260504012346 2 13 0.0 0.0 0.00 0.08 0.00 68 1006.0
20260504012242 2 13 0.0 0.0 0.00 0.08 0.00 67 1006.0
20260504012138 2 13 0.0 0.0 0.00 0.08 0.00 67 1006.0
20260504012032 2 13 0.0 0.0 0.00 0.08 0.00 67 1006.0
20260504011926 2 13 0.0 0.0 0.00 0.08 0.00 67 1006.0
20260504011824 2 13 0.0 0.0 0.00 0.08 0.00 66 1006.0
20260504011722 2 13 0.0 0.0 0.00 0.08 0.00 66 1006.0
20260504011619 2 13 0.0 0.0 0.00 0.08 0.00 66 1006.0
20260504011515 2 13 0.0 0.0 0.00 0.08 0.00 66 1006.0
20260504011413 2 13 0.0 0.0 0.00 0.08 0.00 66 1006.0
20260504011307 2 13 0.0 0.0 0.00 0.08 0.00 65 1006.0
20260504011203 3 13 0.0 0.0 0.00 0.08 0.00 65 1006.0
20260504011058 3 13 0.0 0.0 0.00 0.08 0.00 65 1006.0
20260504010956 3 13 0.0 0.0 0.00 0.08 0.00 65 1006.0
20260504010849 3 13 0.0 0.0 0.00 0.08 0.00 65 1006.0
20260504010743 3 13 0.0 0.0 0.00 0.08 0.00 65 1006.0
20260504010639 3 13 0.0 0.0 0.00 0.08 0.00 65 1006.0
20260504010309 3 13 0.0 0.0 0.00 0.08 0.00 65 1006.0
20260504005723 3 13 0.0 0.0 0.00 0.08 0.00 64 1005.9
20260504005620 3 13 0.0 0.0 0.00 0.08 0.00 64 1005.9
20260504005516 3 13 0.0 0.0 0.00 0.08 0.00 63 1005.9
20260504005155 3 13 0.0 0.0 0.00 0.08 0.00 63 1005.9
20260504005050 3 13 0.0 0.0 0.00 0.08 0.00 63 1006.0
20260504004943 3 13 0.0 0.0 0.00 0.08 0.00 62 1006.0
20260504004840 3 13 0.0 0.0 0.00 0.08 0.00 62 1006.0
20260504004732 3 14 0.0 0.0 0.00 0.08 0.00 62 1005.9
20260504004625 3 14 0.0 0.0 0.00 0.08 0.00 62 1006.0
20260504004523 3 14 0.0 0.0 0.00 0.08 0.00 62 1005.9
20260504004416 3 14 0.0 0.0 0.00 0.08 0.00 62 1006.0
20260504004308 4 14 0.0 0.0 0.00 0.08 0.00 61 1005.9
20260504003942 4 14 0.0 0.0 0.00 0.08 0.00 59 1005.9
20260504003613 4 14 0.0 0.0 0.00 0.08 0.00 58 1005.9
20260504003511 4 14 0.0 0.0 0.00 0.08 0.00 58 1005.8
20260504003407 5 14 0.0 0.0 0.00 0.08 0.00 58 1005.9
20260504003302 5 14 0.0 0.0 0.00 0.08 0.00 57 1005.8
20260504002938 5 14 0.0 0.0 0.00 0.08 0.00 57 1005.8
20260504002834 5 14 0.0 0.0 0.00 0.08 0.00 56 1005.8
20260504002726 5 14 0.0 0.0 0.00 0.08 0.00 56 1005.8
20260504002623 5 14 0.0 0.0 0.00 0.08 0.00 55 1005.8
20260504002520 5 14 0.0 0.0 0.00 0.08 0.00 56 1005.8
20260504002415 5 14 0.0 0.0 0.00 0.08 0.00 55 1005.8
20260504002312 5 14 0.0 0.0 0.00 0.08 0.00 55 1005.8
20260504001949 5 5 0.0 0.0 0.00 0.08 0.00 55 1005.7
20260504001629 5 5 0.0 0.0 0.00 0.08 0.00 54 1005.7
20260504001527 6 5 0.0 0.0 0.00 0.08 0.00 54 1005.7
20260504001422 6 5 0.0 0.0 0.00 0.08 0.00 53 1005.7
20260504001320 6 5 0.0 0.0 0.00 0.08 0.00 53 1005.7
20260504001215 6 5 0.0 0.0 0.00 0.08 0.00 53 1005.7
20260504001113 6 5 0.0 0.0 0.00 0.08 0.00 52 1005.7
20260504001009 6 5 0.0 0.0 0.00 0.08 0.00 52 1005.7
20260504000905 6 5 0.0 0.0 0.00 0.08 0.00 51 1005.7
20260504000535 6 341 0.0 0.0 0.00 0.08 0.00 50 1005.7
20260504000431 6 0 0.0 0.0 0.00 0.08 0.00 50 1005.7
20260504000322 6 0 0.0 0.0 0.00 0.08 0.00 51 1005.7
20260504000219 6 0 0.0 0.0 0.00 0.08 0.00 50 1005.7
20260504000111 6 17 0.0 0.0 0.00 0.08 0.00 50 1005.7
20260504000006 6 11 0.0 0.0 0.00 0.08 0.00 50 1005.8
20260503235902 6 11 0.0 0.0 0.00 0.08 0.00 50 1005.8
20260503235756 6 323 0.0 0.0 0.00 0.08 0.00 50 1005.7
20260503235651 6 337 0.0 0.0 0.00 0.08 0.00 49 1005.7
20260503235543 6 350 0.0 0.0 0.00 0.08 0.00 49 1005.7
20260503235220 6 26 0.0 0.0 0.00 0.08 0.00 49 1005.8
20260503235115 6 30 0.0 0.0 0.00 0.08 0.00 49 1005.7
20260503235013 6 355 0.0 0.0 0.00 0.08 0.00 48 1005.8
20260503234908 6 24 0.0 0.0 0.00 0.08 0.00 48 1005.8
20260503234542 6 18 0.0 0.0 0.00 0.08 0.00 48 1005.8
20260503234435 6 38 0.0 0.0 0.00 0.08 0.00 48 1005.8
20260503234332 6 11 0.0 0.0 0.00 0.08 0.00 48 1005.8
20260503234229 6 11 0.0 0.0 0.00 0.08 0.00 48 1005.8
20260503234124 6 21 0.0 0.0 0.00 0.08 0.00 48 1005.8
20260503233757 7 15 0.0 0.0 0.00 0.08 0.00 48 1005.9
20260503233434 7 33 0.0 0.0 0.00 0.08 0.00 47 1005.8
20260503233107 7 292 0.0 1.6 0.00 0.08 0.00 47 1005.9
20260503233002 7 14 0.0 1.6 0.00 0.08 0.00 47 1005.8
20260503232855 7 22 0.0 9.7 0.00 0.08 0.00 47 1005.8
20260503232748 7 11 0.0 9.7 0.00 0.08 0.00 47 1005.7
20260503232642 7 265 0.0 4.8 0.00 0.08 0.00 47 1005.7
20260503232537 7 20 0.0 0.0 0.00 0.08 0.00 46 1005.7
20260503232431 7 341 0.0 0.0 0.00 0.08 0.00 46 1005.8
20260503232327 7 5 0.0 1.6 0.00 0.08 0.00 47 1005.7
20260503231742 7 28 0.0 0.0 0.00 0.08 0.00 47 1005.7
20260503231636 7 35 0.0 0.0 0.00 0.08 0.00 46 1005.7
20260503231532 7 61 0.0 0.0 0.00 0.08 0.00 46 1005.6
20260503231430 7 5 0.0 0.0 0.00 0.08 0.00 46 1005.6
20260503231326 7 49 0.0 0.0 0.00 0.08 0.00 47 1005.7
20260503231222 7 56 0.0 0.0 0.00 0.08 0.00 46 1005.7
20260503231118 7 11 0.0 0.0 0.00 0.08 0.00 46 1005.7
20260503231012 7 26 0.0 16.1 0.00 0.08 0.00 46 1005.7
20260503230906 7 343 0.0 16.1 0.00 0.08 0.00 46 1005.7
20260503230328 7 347 0.0 0.0 0.00 0.08 0.00 46 1005.7
20260503230002 7 0 0.0 14.5 0.00 0.08 0.00 45 1005.8
20260503225858 7 317 0.0 14.5 0.00 0.08 0.00 45 1005.7
20260503225752 7 0 0.0 14.5 0.00 0.08 0.00 45 1005.7
20260503225649 7 5 0.0 14.5 0.00 0.08 0.00 45 1005.7
20260503225546 7 349 0.0 14.5 0.00 0.08 0.00 45 1005.7
20260503225442 7 30 0.0 14.5 0.00 0.08 0.00 45 1005.7
20260503225336 7 50 0.0 14.5 0.00 0.08 0.00 45 1005.7
20260503225230 7 288 0.0 14.5 0.00 0.08 0.00 45 1005.6
20260503225125 7 9 0.0 0.0 0.00 0.08 0.00 45 1005.7
20260503225022 7 347 0.0 0.0 0.00 0.08 0.00 45 1005.7
20260503224655 7 27 0.0 0.0 0.00 0.08 0.00 45 1005.7
20260503224550 7 9 0.0 9.7 0.00 0.08 0.00 45 1005.7
20260503224231 7 15 0.0 9.7 0.00 0.08 0.00 45 1005.7
20260503224126 7 0 0.0 4.8 0.00 0.08 0.00 45 1005.8
20260503223758 7 5 0.0 16.1 0.00 0.08 0.00 45 1005.7
20260503223653 7 274 0.0 16.1 0.00 0.08 0.00 45 1005.7
20260503223332 7 9 0.0 6.4 0.00 0.08 0.00 45 1005.7
20260503223227 7 299 0.0 0.0 0.00 0.08 0.00 45 1005.7
20260503223122 7 282 1.6 0.0 0.00 0.08 0.00 45 1005.7
20260503223015 7 312 1.6 19.3 0.00 0.08 0.00 44 1005.8
20260503222909 7 355 1.6 19.3 0.00 0.08 0.00 44 1005.7
20260503222541 8 355 0.0 19.3 0.00 0.08 0.00 44 1005.7
20260503222435 8 311 0.0 19.3 0.00 0.08 0.00 44 1005.7
20260503222328 8 355 0.0 19.3 0.00 0.08 0.00 43 1005.7
20260503222222 8 302 0.0 19.3 0.00 0.08 0.00 43 1005.6
20260503222120 8 306 0.0 19.3 0.00 0.08 0.00 44 1005.7
20260503222014 8 0 0.0 1.6 0.00 0.08 0.00 44 1005.6
20260503221912 8 254 0.0 1.6 0.00 0.08 0.00 44 1005.6
20260503221807 8 12 0.0 0.0 0.00 0.08 0.00 45 1005.6
20260503221701 8 308 0.0 3.2 0.00 0.08 0.00 44 1005.6
20260503221557 8 297 0.0 3.2 0.00 0.08 0.00 44 1005.6
20260503221452 8 297 0.0 3.2 0.00 0.08 0.00 44 1005.6
20260503221347 8 306 0.0 0.0 0.00 0.08 0.00 45 1005.5
20260503221241 8 210 0.0 0.0 0.00 0.08 0.00 43 1005.5
20260503221139 8 309 0.0 17.7 0.00 0.08 0.00 43 1005.5
20260503220816 8 290 0.0 1.6 0.00 0.08 0.00 43 1005.6
20260503220714 8 292 0.0 1.6 0.00 0.08 0.00 43 1005.6
20260503220613 8 306 0.0 1.6 0.00 0.08 0.00 44 1005.6
20260503220509 8 340 0.0 12.9 0.00 0.08 0.00 43 1005.6
20260503220403 8 294 0.0 12.9 0.00 0.08 0.00 43 1005.6
20260503220301 8 245 0.0 11.3 0.00 0.08 0.00 44 1005.6
20260503220159 8 309 0.0 0.0 0.00 0.08 0.00 44 1005.6
20260503220057 8 307 0.0 0.0 0.00 0.08 0.00 44 1005.6
20260503215953 8 34 0.0 0.0 0.00 0.08 0.00 44 1005.6
20260503215850 8 284 0.0 0.0 0.00 0.08 0.00 44 1005.6
20260503215744 8 298 0.0 0.0 0.00 0.08 0.00 44 1005.6
20260503215641 8 284 0.0 1.6 0.00 0.08 0.00 44 1005.6
20260503215534 8 311 0.0 0.0 0.00 0.08 0.00 45 1005.6
20260503215428 8 298 0.0 0.0 0.00 0.08 0.00 45 1005.6
20260503215322 8 307 0.0 1.6 0.00 0.08 0.00 45 1005.6
20260503215219 8 5 0.0 1.6 0.00 0.08 0.00 45 1005.6
20260503214855 8 268 0.0 0.0 0.00 0.08 0.00 44 1005.7
20260503214753 8 273 0.0 0.0 0.00 0.08 0.00 44 1005.6
20260503214429 8 19 0.0 0.0 0.00 0.08 0.00 43 1005.6
20260503214105 8 327 0.0 11.3 0.00 0.08 0.00 44 1005.7
20260503214003 8 344 0.0 11.3 0.00 0.08 0.00 45 1005.7
20260503213638 8 342 0.0 14.5 0.00 0.10 0.00 44 1005.6
20260503213535 8 290 0.0 14.5 0.00 0.10 0.00 44 1005.6
20260503213430 8 328 0.0 0.0 0.00 0.10 0.00 44 1005.7
20260503213326 8 300 0.0 12.9 0.00 0.10 0.00 44 1005.7
20260503213222 8 341 0.0 12.9 0.00 0.10 0.00 43 1005.7
20260503213118 8 309 0.0 6.4 0.00 0.10 0.00 44 1005.7
20260503213011 8 296 0.0 0.0 0.00 0.10 0.00 44 1005.7
20260503212430 8 50 0.0 3.2 0.00 0.10 0.00 44 1005.7
20260503212327 8 292 0.0 3.2 0.00 0.10 0.00 44 1005.7
20260503212220 8 15 0.0 0.0 0.00 0.10 0.00 44 1005.8
20260503212116 8 21 0.0 19.3 0.00 0.10 0.00 43 1005.7
20260503212010 8 307 0.0 19.3 0.00 0.10 0.00 43 1005.7
20260503211647 8 323 0.0 11.3 0.00 0.10 0.00 43 1005.7
20260503211542 8 350 0.0 0.0 0.00 0.10 0.00 43 1005.7
20260503211435 8 327 0.0 8.0 0.00 0.10 0.00 44 1005.7
20260503211329 8 32 0.0 8.0 0.00 0.10 0.00 44 1005.7
20260503210747 8 327 0.0 0.0 0.00 0.10 0.00 43 1005.7
20260503210645 8 28 0.0 0.0 0.00 0.10 0.00 44 1005.7
20260503210538 8 317 0.0 0.0 0.00 0.10 0.00 44 1005.7
20260503210432 8 44 0.0 12.9 0.00 0.10 0.00 44 1005.7
20260503210329 8 334 0.0 12.9 0.00 0.10 0.00 44 1005.8
20260503210222 8 336 0.0 12.9 0.00 0.10 0.00 45 1005.8
20260503210119 8 319 0.0 0.0 0.00 0.10 0.00 45 1005.7
20260503210016 8 355 0.0 0.0 0.00 0.10 0.00 45 1005.7
20260503205914 8 23 0.0 0.0 0.00 0.10 0.00 45 1005.7
20260503205812 8 15 0.0 0.0 0.00 0.10 0.00 44 1005.7
20260503205709 8 320 0.0 0.0 0.00 0.10 0.00 45 1005.6
20260503205602 8 22 0.0 0.0 0.00 0.10 0.00 45 1005.6
20260503205458 8 22 0.0 0.0 0.00 0.10 0.00 44 1005.6
20260503205356 8 174 0.0 3.2 0.00 0.10 0.00 44 1005.6
20260503205251 8 346 0.0 3.2 0.00 0.10 0.00 44 1005.6
20260503205148 8 331 0.0 0.0 0.00 0.10 0.00 44 1005.7
20260503205044 8 334 0.0 0.0 0.00 0.10 0.00 45 1005.7
20260503204940 8 355 0.0 6.4 0.00 0.10 0.00 44 1005.7
20260503204836 8 294 0.0 6.4 0.00 0.10 0.00 44 1005.6
20260503204730 8 15 0.0 6.4 0.00 0.10 0.00 44 1005.7
20260503204626 8 26 0.0 6.4 0.00 0.10 0.00 45 1005.7
20260503204307 8 16 0.0 6.4 0.00 0.10 0.00 45 1005.7
20260503204159 8 36 0.0 6.4 0.00 0.10 0.00 46 1005.7
20260503204052 8 343 0.0 0.0 0.00 0.10 0.00 45 1005.6
20260503203947 8 355 0.0 0.0 0.00 0.10 0.00 44 1005.6
20260503203844 8 68 0.0 0.0 0.00 0.10 0.00 44 1005.7
20260503203737 8 25 0.0 0.0 0.00 0.10 0.00 44 1005.6
20260503203408 8 22 0.0 0.0 0.00 0.10 0.00 44 1005.7
20260503203303 8 355 0.0 12.9 0.00 0.10 0.00 45 1005.7
20260503203201 8 20 0.0 12.9 0.00 0.10 0.00 44 1005.7
20260503203055 8 12 0.0 12.9 0.00 0.10 0.00 44 1005.7
20260503202949 8 14 0.0 4.8 0.00 0.10 0.00 44 1005.6
20260503202843 8 28 0.0 4.8 0.00 0.10 0.00 45 1005.7
20260503202738 8 348 0.0 4.8 0.00 0.10 0.00 44 1005.7
20260503202636 8 279 0.0 0.0 0.00 0.10 0.00 45 1005.6
20260503202530 8 23 0.0 4.8 0.00 0.10 0.00 45 1005.7
20260503202427 8 291 0.0 0.0 0.00 0.10 0.00 45 1005.7
20260503202322 8 325 0.0 0.0 0.00 0.10 0.00 45 1005.7
20260503202220 8 348 0.0 4.8 0.00 0.10 0.00 45 1005.7
20260503202114 8 350 0.0 4.8 0.00 0.10 0.00 44 1005.7
20260503201753 8 34 0.0 0.0 0.00 0.10 0.00 44 1005.7
20260503201430 8 333 0.0 12.9 0.00 0.10 0.00 44 1005.6
20260503201328 8 11 0.0 11.3 0.00 0.10 0.00 44 1005.6
20260503200304 9 342 0.0 8.0 0.00 0.10 0.00 43 1005.7
20260503200201 9 24 0.0 8.0 0.00 0.10 0.00 42 1005.7
20260503200057 9 300 0.0 8.0 0.00 0.10 0.00 42 1005.6
20260503195732 9 238 0.0 6.4 0.00 0.10 0.00 42 1005.6
20260503195629 9 292 0.0 3.2 0.00 0.10 0.00 42 1005.7
20260503195525 9 26 0.0 0.0 0.00 0.10 0.00 43 1005.7
20260503195419 9 342 0.0 0.0 0.00 0.10 0.00 41 1005.7
20260503195312 9 23 0.0 1.6 0.00 0.10 0.00 41 1005.6
20260503195209 9 0 0.0 1.6 0.00 0.10 0.00 42 1005.7
20260503195106 9 317 1.6 1.6 0.00 0.10 0.00 42 1005.6
20260503195003 9 5 1.6 0.0 0.00 0.10 0.00 43 1005.6
20260503194856 9 305 1.6 19.3 0.00 0.10 0.00 42 1005.6
20260503194752 9 286 1.6 19.3 0.00 0.10 0.00 42 1005.6
20260503194432 9 320 3.2 20.9 0.00 0.10 0.00 42 1005.5
20260503194327 9 321 3.2 20.9 0.00 0.10 0.00 42 1005.4
20260503194221 9 284 1.6 20.9 0.00 0.10 0.00 43 1005.5
20260503194117 9 350 1.6 20.9 0.00 0.10 0.00 43 1005.5
20260503194014 9 321 3.2 20.9 0.00 0.10 0.00 42 1005.4
20260503193912 9 355 3.2 20.9 0.00 0.10 0.00 42 1005.4
20260503193804 9 252 1.6 20.9 0.00 0.10 0.00 42 1005.5
20260503193437 8 326 0.0 17.7 0.00 0.10 0.00 43 1005.5
20260503193334 8 355 0.0 16.1 0.00 0.10 0.00 42 1005.6
20260503192750 8 307 0.0 8.0 0.00 0.10 0.00 43 1005.7
20260503192643 8 334 0.0 0.0 0.00 0.10 0.00 44 1005.7
20260503192319 8 278 0.0 20.9 0.00 0.10 0.00 43 1005.7
20260503192214 8 279 0.0 20.9 0.00 0.10 0.00 42 1005.7
20260503192111 8 290 0.0 4.8 0.00 0.10 0.00 43 1005.7
20260503192005 8 309 0.0 0.0 0.00 0.10 0.00 44 1005.7
20260503191902 8 306 0.0 8.0 0.00 0.10 0.00 43 1005.7
20260503191758 8 255 0.0 8.0 0.00 0.10 0.00 43 1005.7
20260503191656 8 348 0.0 8.0 0.00 0.10 0.00 44 1005.7
20260503191551 8 279 0.0 0.0 0.00 0.10 0.00 43 1005.7
20260503191448 8 325 1.6 0.0 0.00 0.10 0.00 43 1005.7
20260503191346 8 259 1.6 0.0 0.00 0.10 0.00 44 1005.7
20260503191242 8 209 1.6 19.3 0.00 0.10 0.00 43 1005.7
20260503191138 8 288 1.6 19.3 0.00 0.10 0.00 43 1005.7
20260503191034 8 265 0.0 17.7 0.00 0.10 0.00 43 1005.6
20260503190932 8 303 0.0 17.7 0.00 0.10 0.00 43 1005.6
20260503190827 8 87 0.0 0.0 0.00 0.10 0.00 43 1005.6
20260503190240 9 288 0.0 20.9 0.00 0.10 0.00 44 1005.6
20260503190136 9 321 0.0 20.9 0.00 0.10 0.00 43 1005.6
20260503190030 9 315 0.0 20.9 0.00 0.10 0.00 44 1005.6
20260503185926 9 313 0.0 20.9 0.00 0.10 0.00 43 1005.6
20260503185822 9 40 0.0 20.9 0.00 0.10 0.00 43 1005.6
20260503185718 9 255 0.0 20.9 0.00 0.10 0.00 43 1005.6
20260503185613 9 244 0.0 20.9 0.00 0.10 0.00 43 1005.6
20260503185247 9 312 0.0 20.9 0.00 0.10 0.00 43 1005.6
20260503184920 9 271 0.0 8.0 0.00 0.10 0.00 42 1005.6
20260503184817 9 312 0.0 3.2 0.00 0.10 0.00 42 1005.6
20260503184453 8 290 1.6 14.5 0.00 0.10 0.00 42 1005.7
20260503184347 8 290 0.0 14.5 0.00 0.10 0.00 42 1005.7
20260503184243 8 292 0.0 11.3 0.00 0.10 0.00 42 1005.7
20260503184141 8 290 0.0 11.3 0.00 0.10 0.00 42 1005.7
20260503184037 8 289 1.6 11.3 0.00 0.10 0.00 43 1005.7
20260503183935 8 325 1.6 11.3 0.00 0.10 0.00 43 1005.7
20260503183829 8 282 1.6 11.3 0.00 0.10 0.00 43 1005.7
20260503183723 8 300 1.6 20.9 0.00 0.10 0.00 42 1005.8
20260503183618 8 274 1.6 20.9 0.00 0.10 0.00 43 1005.7
20260503183515 8 21 1.6 20.9 0.00 0.10 0.00 42 1005.7
20260503183408 8 302 1.6 20.9 0.00 0.10 0.00 42 1005.8
20260503183304 8 321 1.6 20.9 0.00 0.10 0.00 42 1005.8
20260503183200 8 314 1.6 20.9 0.00 0.10 0.00 43 1005.7
20260503183058 8 294 0.0 20.9 0.00 0.10 0.00 42 1005.8
20260503182952 8 319 0.0 20.9 0.00 0.10 0.00 42 1005.7
20260503182851 8 282 0.0 19.3 0.00 0.10 0.00 42 1005.8
20260503182744 8 303 0.0 19.3 0.00 0.10 0.00 42 1005.7
20260503182640 8 15 0.0 19.3 0.00 0.10 0.00 42 1005.7
20260503182055 9 297 0.0 0.0 0.00 0.10 0.00 43 1005.7
20260503181732 8 323 0.0 0.0 0.00 0.10 0.00 44 1005.8
20260503181625 8 290 0.0 12.9 0.00 0.10 0.00 43 1005.7
20260503181519 8 288 0.0 12.9 0.00 0.10 0.00 42 1005.8
20260503181415 8 262 0.0 11.3 0.00 0.10 0.00 42 1005.9
20260503181052 9 246 0.0 11.3 0.00 0.10 0.00 42 1005.8
20260503180946 9 348 0.0 0.0 0.00 0.10 0.00 42 1005.8
20260503180840 9 314 0.0 0.0 0.00 0.10 0.00 42 1005.9
20260503180738 9 229 0.0 3.2 0.00 0.10 0.00 42 1005.8
20260503180635 9 292 0.0 3.2 0.00 0.10 0.00 42 1005.8
20260503180527 9 255 0.0 3.2 0.00 0.10 0.00 42 1005.8
20260503180421 9 292 1.6 9.7 0.00 0.10 0.00 43 1005.9
20260503180319 9 35 1.6 9.7 0.00 0.10 0.00 42 1005.9
20260503180213 9 325 1.6 9.7 0.00 0.10 0.00 42 1005.9
20260503180111 9 14 1.6 9.7 0.00 0.10 0.00 42 1005.9
20260503180005 9 279 1.6 9.7 0.00 0.10 0.00 42 1005.8
20260503175641 9 255 0.0 22.5 0.00 0.10 0.00 41 1005.9
20260503175533 10 264 0.0 22.5 0.00 0.10 0.00 42 1005.9
20260503175428 10 289 0.0 22.5 0.00 0.10 0.00 41 1005.8
20260503175320 10 235 0.0 11.3 0.00 0.10 0.00 41 1005.8
20260503175215 10 323 0.0 4.8 0.00 0.10 0.00 42 1005.8
20260503174851 9 39 0.0 0.0 0.00 0.10 0.00 43 1005.9
20260503174746 9 33 0.0 0.0 0.00 0.10 0.00 43 1005.9
20260503174639 9 275 0.0 0.0 0.00 0.10 0.00 42 1005.9
20260503174534 9 262 0.0 0.0 0.00 0.10 0.00 42 1005.9
20260503174213 9 277 0.0 8.0 0.00 0.10 0.00 42 1006.0
20260503174106 9 295 0.0 8.0 0.00 0.10 0.00 43 1006.0